Regional Weather Roundup
Issued by NWS State College, PA

Home | Current Version | Previous Version | Graphics & Text | Print | Product List | Glossary On
Versions: 1 2 3 4 5 6 7 8 9 10 11 12 13 14 15 16 17 18 19 20 21 22 23 24 25 26 27 28 29 30 31 32 33 34 35 36 37 38 39 40 41 42 43 44 45 46 47 48 49 50
000
ASUS41 KCTP 031510
RWRCTP

REGIONAL WEATHER ROUNDUP
NATIONAL WEATHER SERVICE STATE COLLEGE PA
1100 AM EDT FRI JUL 03 2015

Note: "fair" indicates few or no clouds below 12,000 feet with no
significant weather and/or obstructions to visibility.

* = STATION THAT DOES NOT REPORT PRECIPITATION /E.G. RAIN...SNOW...ETC/
    THUNDER OR FOG.

PAZ002>004-007>009-013>016-020>023-029>032-031600-
WESTERN PENNSYLVANIA

CITY           SKY/WX    TMP DP  RH WIND       PRES   REMARKS
ERIE           SUNNY     71  46  40 NE9       29.99F
MEADVILLE      MOSUNNY   67  50  54 E7        30.00F
FRANKLIN*      MOSUNNY   66  55  68 CALM      30.02S
NEW CASTLE     FAIR      70  61  73 CALM      29.99F
BEAVER COUNTY  SUNNY     70  59  68 CALM      29.98F
BUTLER*        MOSUNNY   72  55  56 E6        30.00F
PITTSBURGH INT CLOUDY    73  54  51 E7        29.97F
PITTSBURGH     MOSUNNY   72  55  55 NE5       29.97S
INDIANA*       MOSUNNY   70  63  78 VRB3      30.03S
LATROBE        MOSUNNY   72  64  78 CALM      29.98F
WASHINGTON CO* NOT AVBL
$$

PAZ004>006-010>012-017>019-024>028-033>037-041-042-045-046-049>053-031600-
CENTRAL PENNSYLVANIA

CITY           SKY/WX    TMP DP  RH WIND       PRES   REMARKS
BRADFORD       MOSUNNY   65  51  60 S6        30.03F
DUBOIS         SUNNY     69  55  60 SE6       30.01S
CLEARFIELD     SUNNY     69  56  62 VRB6      30.02F
JOHNSTOWN      MOSUNNY   66  59  78 VRB7      30.02S
ALTOONA        CLOUDY    67  60  78 NE5       30.03S
STATE COLLEGE  MOSUNNY   68  57  68 NE6       30.02F
WILLIAMSPORT   SUNNY     70  50  49 SE5       30.00F
SELINSGROVE    SUNNY     72  52  49 CALM      30.02S
FT INDIANTOWN  SUNNY     73  58  58 E5        30.01R
CAPITAL CITY   SUNNY     73  58  59 E6        30.01R
HARRISBURG     SUNNY     75  61  61 S5        30.00R
YORK           SUNNY     74  62  66 E6        30.00S
$$

PAZ038>040-043-044-047-048-054-055-060>062-067>071-031600-
EASTERN PENNSYLVANIA

CITY           SKY/WX    TMP DP  RH WIND       PRES   REMARKS
SCRANTON       SUNNY     72  48  42 E7        30.03S
MOUNT POCONO   SUNNY     67  44  43 E3        30.05R
ALLENTOWN      SUNNY     74  51  44 VRB3      30.02R
QUAKERTOWN*    SUNNY     72  54  53 CALM      30.03R
READING        SUNNY     74  56  53 N5        30.00R
LANCASTER      SUNNY     73  60  63 VRB7      30.01R
COATESVILLE    SUNNY     73  59  60 SE6       30.03R
POTTSTOWN      SUNNY     74  58  57 CALM      30.03R
BLUE BELL      SUNNY     77  61  57 N3        30.00S
DOYLESTOWN     SUNNY     75  53  46 N5        30.01R
WILLOW GROVE   NOT AVBL
NORTH PHILA    SUNNY     77  56  48 E6        30.02R
PHILADELPHIA   PTSUNNY   78  58  49 E6        30.01R
$$


USA.gov is the U.S. government's official web portal to all federal, state and local government web resources and services.